Regional Weather Roundup
Issued by NWS Burlington, VT

Current Version | Previous Version | Graphics & Text | Print | Product List | Glossary Off
Versions: 1 2 3 4 5 6 7 8 9 10 11 12 13 14 15 16 17 18 19 20 21 22 23 24 25 26 27 28 29 30 31 32 33 34 35 36 37 38 39 40 41 42 43 44 45 46 47 48 49 50

000
ASUS41 KBTV 270830
RWRBTV
VERMONT REGIONAL WEATHER ROUNDUP
NATIONAL WEATHER SERVICE BURLINGTON VT
400 AM EDT SAT AUG 27 2016

NOTE: "FAIR" INDICATES FEW OR NO CLOUDS BELOW 12,000 FEET WITH NO
SIGNIFICANT WEATHER AND/OR OBSTRUCTIONS TO VISIBILITY.

* THESE REPORTS ARE NOT UNDER NWS QUALITY CONTROL AND/OR DO NOT
  REPORT WEATHER SUCH AS PRECIPITATION AND FOG.

VTZ001>019-270900-
_____VERMONT_____


CITY           SKY/WX    TMP DP  RH WIND       PRES   REMARKS
BURLINGTON     MOCLDY    66  60  81 CALM      30.12R
MONTPELIER     PTCLDY    58  56  93 CALM      30.19R
MORRISVILLE    CLOUDY    60  57  89 CALM      30.15S
ST. JOHNSBURY*   N/A     59  55  87 MISG      30.13R
LYNDONVILLE*   FAIR      56  55  97 CALM      30.17R FOG
MIDDLEBURY*    CLOUDY    63  63 100 CALM      30.14R
RUTLAND*       CLEAR     60  57  89 SE7       30.16R
SPRINGFIELD    FOG       58  57  97 CALM      30.15S VSB 1/4
HIGHGATE*      FAIR      63  62  97 CALM      30.13R
NEWPORT*       FAIR      54  54  97 CALM      30.16R
BENNINGTON     PTCLDY    57  56  96 CALM      30.16R FOG
GALLUP MILLS*    N/A     52 N/A N/A MISG        N/A
UNION VILLAGE*   N/A     59 N/A N/A MISG        N/A
MT. MANSFIELD*   N/A     59 N/A N/A N9          N/A

_____LAKE CHAMPLAIN_____


CITY           SKY/WX    TMP DP  RH WIND       PRES   REMARKS
BURTON ISLAND*   N/A     70  64  83 S1          N/A
COLCHESTER RF*   N/A     72  66  83 S5          N/A
DIAMOND ISL*     N/A     66  63  88 SE5         N/A

$$

NYZ007-026>031-035-052-083-087-270900-
_____NORTHERN NEW YORK_____


CITY           SKY/WX    TMP DP  RH WIND       PRES   REMARKS
PLATTSBURGH    MOCLDY    65  60  84 CALM      30.11R
SARANAC LAKE   FOG       52  51  97 CALM      30.17S VSB 1/2
MASSENA        MOCLDY    59  57  93 CALM      30.14R
OGDENSBURG*    FOG       57  57 100 CALM      30.13R VSB 1
POTSDAM*       CLEAR     61  61 100 CALM      30.14R
STARK FALLS*     N/A    N/A N/A N/A S1          N/A
WATERTOWN      CLEAR     64  61  90 CALM      30.13S
FT DRUM        CLEAR     64  61  91 SW2       30.14S
ALBANY         CLEAR     66  60  81 CALM      30.14R
GLENS FALLS    PTCLDY    60  58  92 CALM      30.13S FOG

$$
NHZ002-005-011-270900-
_____NEW HAMPSHIRE_____


CITY           SKY/WX    TMP DP  RH WIND       PRES   REMARKS
LEBANON        MOCLDY    59  57  93 CALM      30.14R
KEENE          PTCLDY    57  57 100 CALM      30.15R
MT WASHINGTON  PTCLDY    47  46  95 N40G55      N/A
PLYMOUTH       FAIR      58  56  96 CALM      30.13R
WHITEFIELD     CLEAR     52  48  86 CALM      30.15R

$$

_____REGIONAL QUEBEC LOCATIONS_____


CITY           SKY/WX    TMP DP  RH WIND       PRES   REMARKS
MONTREAL       MOCLDY    66  57  72 VRB5      30.13R
QUEBEC CITY    CLEAR     59  54  82 NW5       30.11R
SHERBROOKE     CLOUDY    54  54 100 SE2       30.13S FOG

_____REGIONAL ONTARIO LOCATIONS_____


CITY           SKY/WX    TMP DP  RH WIND       PRES   REMARKS
OTTAWA         PTCLDY    66  59  77 N7        30.14S

______KEY______
VSB  - VISIBILITY IN MILES
WCI  - WIND CHILL INDEX
HX   - HEAT INDEX
$$
NNNN




USA.gov is the U.S. government's official web portal to all federal, state and local government web resources and services.